Regional Weather Roundup
Issued by NWS

Home | Current Version | Previous Version | Graphics & Text | Print | Product List | Glossary On
Versions: 1 2 3 4 5 6 7 8 9 10 11 12 13 14 15 16 17 18 19 20 21 22 23 24 25 26 27 28 29 30 31 32 33 34 35 36 37 38 39 40 41 42 43 44 45 46 47 48 49 50
524
ASUS45 KTFX 230710
RWRMT
MONTANA REGIONAL WEATHER ROUNDUP
NATIONAL WEATHER SERVICE GREAT FALLS MT
100 AM MDT SUN APR 23 2017

NOTE: "FAIR" INDICATES FEW OR NO CLOUDS BELOW 12000 FEET WITH NO
SIGNIFICANT WEATHER AND/OR OBSTRUCTIONS TO VISIBILITY.

MTZ001>007-043-230800-
WEST OF THE DIVIDE

CITY           SKY/WX    TMP DP  RH WIND       PRES   REMARKS
KALISPELL      PTCLDY    43  36  76 N7        29.85S
MISSOULA       CLOUDY    46  36  68 W5        29.86F
BUTTE          CLOUDY    47  26  44 E5        29.91F
MULLAN PASS    CLOUDY    36  31  82 VRB3      29.91F
ANACONDA         N/A     43  27  52 SW7       29.89F
DEER LODGE       N/A     39  28  65 W7        29.91F
EUREKA           N/A     50  37  62 E6        29.89F
HAMILTON         N/A     48  30  49 CALM      29.86F
LIBBY            N/A     48  39  71 SE5       29.89F
RONAN            N/A     44  38  79 NW2       29.91F
$$

MTZ008-052>055-230800-
SOUTHWEST MONTANA

CITY           SKY/WX    TMP DP  RH WIND       PRES   REMARKS
BOZEMAN        PTCLDY    40  34  79 SE9       29.91F
DILLON         CLOUDY    44  30  57 E5        29.91F
W YELLOWSTONE  CLOUDY    32  27  80 CALM      30.04S
ENNIS          CLEAR     50  25  37 SE13G21   29.98F
THREE FORKS      N/A     54  54 100 SW16      29.89F
TWIN BRIDGES     N/A     48  29  48 SE7       29.91F
$$

MTZ009-010-012-014-046-048-049-054-230800-
EAST SLOPES AND CENTRAL MONTANA

CITY           SKY/WX    TMP DP  RH WIND       PRES   REMARKS
CUT BANK       CLOUDY    41  38  89 SE12      29.88F
GREAT FALLS    MOCLDY    45  39  79 NE8       29.86F
MALMSTROM AFB  CLOUDY    45  41  85 N5        29.86F
HELENA         CLOUDY    48  35  60 W6        29.86F
AUGUSTA        MOCLDY    39  37  91 NE8       29.87F
BOWMANS CRNR   MOCLDY    45  33  62 E3        29.85F
CHOTEAU          N/A     37  37 100 N7        29.89F
FAIRFIELD        N/A     41  37  83 N3        29.86F
POWER          MOCLDY    42  38  86 E6        29.85F
RAYNESFORD     MOCLDY    47  36  65 E6        29.87F
ULM            MOCLDY    44  39  81 SE3       29.85F
$$

MTZ011-013-016-021-045-047-050-051-230800-
NORTH CENTRAL MONTANA

CITY           SKY/WX    TMP DP  RH WIND       PRES   REMARKS
HAVRE          CLOUDY    46  41  82 E22G30    29.90F
LEWISTOWN      CLOUDY    46  37  71 E7        29.88F
N BAR RANCH      N/A     45  36  70 CALM      29.93F
CHINOOK          N/A     46  41  81 E12       29.94F
DENTON         CLOUDY    44  38  80 NE6       29.84F
FORT BENTON      N/A     48  41  76 MISG      29.86F
GEYSER           N/A     44  37  76 SW10      29.86F
GRASS RANGE    MOCLDY    43  38  83 W3        29.86F
JUDITH GAP     MOCLDY    45  36  70 S12       29.90F
STANFORD       MOCLDY    44  37  76 S6        29.88F
WINIFRED       MOCLDY    44  39  85 E9        29.87F
$$

MTZ017>020-022>027-061-062-230800-
NORTHEAST MONTANA

CITY           SKY/WX    TMP DP  RH WIND       PRES   REMARKS
GLASGOW        PTCLDY    40  34  79 E26G33    29.98F
JORDAN           N/A     45  41  86 E9        29.94F
SIDNEY         CLOUDY    40  33  76 E14       30.08S
WOLF POINT     CLOUDY    40  33  76 E20       30.05F
MALTA          CLOUDY    45  39  81 E20       29.96F
PLENTYWOOD       N/A     36  32  87 E14       30.11F WCI  27
POPLAR           N/A     37  34  87 E12       30.07S WCI  30
$$

MTZ028>42-056>058-230800-
SOUTHCENTRAL AND SOUTHEAST MONTANA

CITY           SKY/WX    TMP DP  RH WIND       PRES   REMARKS
BAKER          CLOUDY    42  38  85 E18       29.97F
BILLINGS       MOCLDY    46  38  73 CALM      29.90F
LIVINGSTON     CLEAR     45  37  73 E5        29.90F
MILES CITY     PTCLDY    46  41  82 NE15      29.93F
BIG TIMBER     PTCLDY    43  37  81 CALM      29.93F
LAUREL           N/A     47  34  60 CALM      29.89F
ROUNDUP          N/A     45  37  73 NW5       29.83F
$$

REGIONAL REPORTS...DAKOTAS

CITY           SKY/WX    TMP DP  RH WIND       PRES   REMARKS
WILLISTON      CLOUDY    38  32  79 E14G25    30.12S WCI  30
MINOT          FLURRIES  32  26  78 NE14      30.20S WCI  22
DICKINSON      CLOUDY    35  32  88 NE17      30.04S WCI  25
BEACH          CLOUDY    37  37 100 E23       30.04S WCI  26
TIOGA          CLOUDY    32  32 100 E21G29    30.14S WCI  20
WATFORD CITY   CLOUDY    34  32  93 E21       30.09S WCI  22
BISMARCK       CLOUDY    37  32  82 E17G28    30.13F WCI  27
GRAND FORKS    CLOUDY    34  24  67 N17       30.24S WCI  23
FARGO          CLOUDY    36  33  89 N16       30.17F WCI  26
BUFFALO SD       N/A     49  39  68 NE7       29.89F
RAPID CITY     CLOUDY    43  31  62 S9        29.99F
$$

REGIONAL REPORTS...WYOMING/IDAHO/WASHINGTON

CITY           SKY/WX    TMP DP  RH WIND       PRES   REMARKS
GILLETTE       CLOUDY    47  34  60 S23       29.92F
SHERIDAN       CLOUDY    38  35  89 SW3       29.91F
BUFFALO WY     CLOUDY    42  32  67 W5        29.94F
CODY           CLOUDY    43  38  82 CALM      29.96F
YELLOWSTONE LA   N/A     28  25  88 CALM      30.08F
IDAHO FALLS    CLOUDY    43  35  73 CALM      29.98F
SALMON         PTCLDY    48  28  46 SE3       29.88S
BOISE          CLOUDY    59  33  37 S15       29.84R
SPOKANE          N/A     49  39  68 SW8       29.88F
$$

REGIONAL REPORTS...ALBERTA

CITY           SKY/WX    TMP DP  RH WIND       PRES   REMARKS
EDMONTON       LGT SNOW  32  25  74 E14       30.10F WCI  22
CALGARY        LGT RAIN  36  34  93 SE14G23   29.92F WCI  27
LETHBRIDGE     CLEAR     37  36  93 NE9       29.87S WCI  31
MEDICINE HAT   CLOUDY    43  39  87 E16G22    29.92F
WATERTON GATE    N/A     39  30  70 N2          N/A
CARDSTON         N/A     43  37  81 S1          N/A
MILK RIVER       N/A     43  39  87 S6          N/A
$$

REGIONAL REPORTS...SASKATCHEWAN

CITY           SKY/WX    TMP DP  RH WIND       PRES   REMARKS
SWIFT CURRENT  CLOUDY    37  32  81 E15G23    30.04S WCI  28
REGINA         CLOUDY    37  27  65 E15       30.17S WCI  28
SASKATOON      CLOUDY    34  23  64 E9        30.22F WCI  26
VAL MARIE        N/A     39  36  87 E22G31      N/A  WCI  29
ROCKGLEN         N/A     34  34 100 E14G21      N/A  WCI  24
ASSINIBOIA       N/A     34  23  64 E12         N/A  WCI  25
$$




USA.gov is the U.S. government's official web portal to all federal, state and local government web resources and services.